www.pogodaiklimat.ru

Погода и климат >> Архив погоды >> Марокко >> Касабланка


АРХИВ ПОГОДЫ в Касабланке

Время (UTC), дата Ветер
(напр.,м/с)
 
Видим.   Явления Облачность Т
(С)
Тd
(С)
f
(%)
Тe
(С)
Тes
(С)
Комфортность P
(гПа)
Po
(гПа)
Тmin
(С)
Tmax
(С)
R
(мм)
R24
(мм)
S
(см)
06 11.06 С 4-4
{6}
10 км 6/6 480 м
[Cu med, cong]
+17.0 +12.1 73 +17 +17 по сезону 1015.8 1009.1 +16.9
09 11.06 С 8-8
{12}
10 км 4/4 480 м
[Cu med, cong]
+19.9 +12.4 62 +21 +22 комфорт 1016.0 1009.3
12 11.06 С 14-14
{22}
10 км 3/3 480 м
[Cu med, cong]
+21.7 +13.7 60 +24 +24 комфорт 1015.6 1008.8
15 11.06 С 16-16
{27}
10 км ясно +20.9 +13.7 63 +23 +23 комфорт 1014.1 1007.4
18 11.06 С 20-20
{27}
10 км 6/6 480 м
[Cu med, cong]
+19.6 +13.8 69 +20 +20 прохладно 1013.7 1007.0 +21.8
06 12.06 С 4-10
{14}
10 км 3/3 480 м
[Cu med, cong]
+18.4 +13.1 71 +19 +19 по сезону 1011.3 1004.6 +18.2
09 12.06 С 10-10
{16}
10 км ясно +20.9 +14.3 66 +23 +24 комфорт 1011.3 1004.6
12 12.06 С 14-17
{21}
10 км ясно +22.2 +14.7 62 +26 +26 душно 1011.0 1004.3
15 12.06 С 17-23
{25}
10 км 3/3 480 м
[Cu med, cong]
+22.4 +15.2 64 +26 +26 жарко 1009.8 1003.1
18 12.06 С 16-21
{25}
10 км ясно +21.1 +16.3 74 +24 +24 комфорт 1009.3 1002.6 +21.8
06 13.06 С 5-6
{8}
5000 м 4/4 480 м
[Cu med, cong Ac trans]
+18.9 +16.7 87 +20 +20 тепло 1010.2 1003.5 +18.8
09 13.06 С 12-13
{21}
6000 м 8/8 480 м
[Cu med, cong]
+20.6 +15.6 73 +23 +23 комфорт 1011.2 1004.5
12 13.06 С 16-17
{21}
8000 м 9/9 480 м
[Cu med, cong]
+21.6 +15.4 68 +25 +25 комфорт 1012.1 1005.4
15 13.06 СЗ 14-15
{23}
8000 м 8/8 480 м
[Cu med, cong]
+21.2 +15.0 68 +24 +24 комфорт 1013.4 1006.7
18 13.06 СЗ 11-12
{21}
10 км 9/9 480 м
[Cu med, cong]
+19.5 +13.2 67 +20 +20 прохладно 1014.7 1008.0 +22.1
06 14.06 Ю 3-4
{6}
10 км 4/4 480 м
[Cu med, cong]
+16.2 +10.5 69 +16 +16 прохладно 1018.1 1011.7 +15.5
09 14.06 С 7-8
{12}
10 км 4/4 480 м
[Cu med, cong]
+20.2 +10.2 53 +21 +23 комфорт 1019.6 1012.9
12 14.06 С 10-12
{19}
10 км 5/5 480 м
[Cu med, cong]
+21.1 +11.1 53 +23 +23 комфорт 1020.2 1013.5
15 14.06 С 12-13
{23}
10 км 4/3 480 м
[Cu hum Ci fib]
+21.7 +10.6 49 +23 +23 комфорт 1019.6 1012.8
18 14.06 С 15-16
{23}
10 км 4/0
[Ci sp]
+20.3 +9.8 51 +21 +21 комфорт 1019.7 1013.0 +22.2
06 15.06 В 6-6
{12}
10 км ясно +16.3 +11.4 73 +15 +15 прохладно 1020.3 1013.6 +15.9
09 15.06 СВ 8-8
{18}
10 км ясно +19.8 +10.9 56 +21 +22 комфорт 1020.0 1013.3
12 15.06 С 14-14
{24}
10 км ясно +20.9 +11.4 55 +22 +22 комфорт 1019.9 1013.2
15 15.06 СВ 14-14
{26}
10 км ясно +21.0 +12.4 58 +23 +23 комфорт 1019.5 1012.7
18 15.06 С 16-16
{25}
10 км 4/4 480 м
[Cu med, cong]
+19.8 +12.7 64 +20 +20 прохладно 1019.0 1012.3 +21.9
06 16.06 С 2-2
{2}
10 км 8/8 480 м
[Cu Sc]
+16.9 +13.2 79 +17 +17 по сезону 1018.5 1011.7 +16.9
09 16.06 С 9-10
{14}
15 км 3/1 480 м
[Cu hum Ac trans Ci sp]
+20.7 +12.9 61 +23 +23 комфорт 1019.6 1012.9
12 16.06 СЗ 15-16
{21}
15 км 1/1 600 м
[Cb calv As op]
+21.5 +13.1 59 +24 +24 комфорт 1019.7 1013.0
15 16.06 С 15-16
{23}
15 км 1/1 480 м
[Cu hum]
+22.0 +14.6 63 +25 +25 комфорт 1019.4 1012.7
18 16.06 С 7-8
{19}
15 км 6/6 480 м
[Cu med, cong]
+20.2 +14.3 69 +22 +22 комфорт 1019.2 1012.5 +22.4
06 17.06 С 2-3
{8}
10 км 8/8 480 м
[Cu Sc]
+16.8 +13.7 82 +17 +17 по сезону 1018.0 1011.3 +16.7
09 17.06 СВ 10-11
{14}
10 км 5/5 480 м
[Cu med, cong]
+20.5 +13.6 65 +22 +22 комфорт 1018.2 1011.5
12 17.06 С 12-13
{19}
10 км ясно +21.5 +13.7 61 +24 +24 комфорт 1017.6 1010.9
15 17.06 С 14-15
{25}
10 км 1/1 480 м
[Cu hum]
+21.4 +14.3 64 +24 +24 комфорт 1016.8 1010.1
18 17.06 С 12-4
{25}
10 км 3/3 400 м
[Cu med, cong]
+20.1 +14.1 68 +21 +21 комфорт 1016.9 1010.1 +21.9

 

Местоположение метеостанции Касабланка (Марокко): широта 33.57 долгота -7.67 высота над уровнем моря 57 м.

В архиве по умолчанию представлена погода в Касабланке за последнюю неделю. Архивные данные за месяц целиком и за предыдущие месяцы, начиная с января 2011 года, Вы можете получить, выбрав интересующий диапазон дат из раскрывающегося списка и нажав кнопку "Ввод!".


*Определитесь, кто Вы:
робот инопланетянин человек

Внимание! Время в таблицах - всемирное. Для получения местного времени необходимо прибавить поправку, которая равна 0 ч.

Смотрите также архив погоды в соседних городах и на ближайших метеорологических станциях:

Погода в Нуасере (Марокко) (24 км)
Погода в Мохаммедии (Марокко) (30 км)
Погода в Сеттате (Марокко) (69 км)
Погода в Рабате (Марокко) (99 км)
Погода в Хурибге (Марокко) (102 км)
Погода в Кенитре (Марокко) (128 км)
Погода в Касба-Тадле (Марокко) (174 км)
Погода в Бени-Меллале (Марокко) (178 км)
Погода в Мекнесе (Марокко) (201 км)
Погода в Сафи (Марокко) (204 км)

Пояснения к столбцам:

Ветер - указаны скорость ветра в м/с - средняя за 10 мин, порывы в срок и между сроками (в фигурных скобках) и направление, откуда дует ветер: С - северный, СВ - северо-восточный, В - восточный, ЮВ - юго-восточный, Ю - южный, ЮЗ - юго-западный, З - западный, СЗ - северо-западный.
Видимость - горизонтальная дальность видимости в метрах или километрах. При видимости от 1 до 10 км при отсутствии осадков обычно наблюдается дымка, при ухудшении видимости до 1 км и менее - туман. В сухую погоду видимость может ухудшаться дымом, пылью или мглою.
Явления - указаны атмосферные явления, наблюдавшиеся в срок или в последний час перед сроком; фигурными скобками обозначены явления, наблюдавшиеся между сроками (за 1-3 часа до срока); квадратными скобками обозначены град или гололедные отложения с указанием их диаметра в мм.
Облачность - указаны через наклонную черту общая и нижняя облачность в баллах и высота нижней границы облаков в метрах; квадратными скобками обозначены формы облаков: Ci - перистые, Cs - перисто-слоистые, Cc - перисто-кучевые, Ac - высококучевые, As - высокослоистые, Sc - слоисто-кучевые, Ns - слоисто-дождевые, Cu - кучевые, Cb - кучево-дождевые. Подробнее классификацию облаков см. в Атласе облаков (PDF).
T - Температура воздуха - температура, измеренная на высоте 2 м над землей.
Td - Температура точки росы - температура, при понижении до которой содержащийся в воздухе водяной пар достигнет насыщения.
f - Относительная влажность воздуха - влажноcть воздуха, измеренная на высоте 2 м над землей.
Te - Эффективная температура - температура, которую ощущает одетый по сезону человек в тени. Характеристика душности погоды. При расчете учитывается влияние влажности воздуха и скорости ветра на теплоощущения человека.
Tes - Эффективная температура на солнце - температура, которую ощущает человек, с поправкой на солнечный нагрев. Характеристика знойности погоды. Зависит от высоты солнца над горизонтом, облачности и скорости ветра. Ночью, в пасмурную погоду, а также при ветре 12 м/с и более поправка равна нулю.
P - Атмосферное давление - приведенное к уровню моря атмосферное давление.
Po - Атмосферное давление - измеренное на уровне метеостанции атмосферное давление.
Tmin - Минимальная температура - минимум температуры воздуха на высоте 2 м над землей.
Tmax - Максимальная температура - максимум температуры воздуха на высоте 2 м над землей.
R - Количество осадков - Количество выпавших осадков за период времени, мм. При наведении курсора мыши на число - период времени, за который выпало указанное количество осадков.
R24 - Количество осадков - Количество выпавших осадков за 24 часа, мм.
S - Снежный покров - Высота снежного покрова, см. При наведении курсора мыши на число - состояние снежного покрова и степень покрытия местности в баллах.